www.pogodaiklimat.ru

Погода и климат >> Архив погоды >> Канада >> Baker Lake Airport


ПОГОДА в Baker Lake Airport

  • Прогноз погоды в Baker Lake Airport
  • Монитор погоды в Baker Lake Airport
  • Климат города

АРХИВ ПОГОДЫ в Baker Lake Airport

Время (UTC), дата Ветер
(напр.,м/с)
 
Видим.   Явления Облачность Т
(С)
Тd
(С)
f
(%)
Тe
(С)
Тes
(С)
Комфортность P
(гПа)
Po
(гПа)
Тmin
(С)
Tmax
(С)
R
(мм)
S
(см)
15 14.02 СЗ 6 30 км ясно -34.6 -38.7 66 -50 -50 опасность
обморожения
1026.0 1023.4
18 14.02 С 2 30 км {снег} ясно -33.4 -37.9 64 -40 -39 опасность
обморожения
1026.2 1023.6 -35.3 -32.5 0.0 46
21 14.02 С 2 30 км ясно -33.9 -38.2 65 -42 -42 опасность
обморожения
1025.6 1023.0
00 15.02 С 1 24 км 1/0 2000 м
[Ac As]
-35.5 -39.2 69 -37 -37 опасность
обморожения
1025.4 1022.8 -35.5 -32.3 46
03 15.02 В 3 24 км 10/10 300 м
[]
-34.3 -38.0 69 -44 -44 опасность
обморожения
1024.5 1021.9
06 15.02 В 4 8000 м ледяные иглы {снег} 10/10 200 м
[Sc]
-32.2 -35.7 71 -43 -43 опасность
обморожения
1023.1 1020.5 -35.8 -32.2 0.0 81
09 15.02 В 7 9000 м 9/0
[]
-30.6 -34.0 72 -45 -45 опасность
обморожения
1021.3 1018.7
12 15.02 В 6 16 км ледяные иглы {снег} 8/0
[]
-30.6 -34.0 72 -45 -45 опасность
обморожения
1020.4 1017.8 -35.8 -32.2 0.0 46
15 15.02 ЮВ 9 1000 м 4/0
[]
-28.7 -31.8 75 -44 -44 опасность
обморожения
1017.1 1014.5
18 15.02 800 м ледяные иглы {снег} н/о -24.9 -28.0 75 -38 -38 опасность
обморожения
1015.6 1013.1 -35.8 -24.9 0.0 46
21 15.02 ЮВ 12 400 м 6/6 100 м
[]
-22.3 -25.0 79 -38 -38 опасность
обморожения
1011.2 1008.7
00 16.02 400 м слабый снег {метель} н/о -20.7 -23.3 80 -36 -36 опасность
обморожения
1007.9 1005.4 -32.3 -20.7 0.6 46
03 16.02 ЮВ 17 200 м 6/6 100 м
[]
-19.4 -21.9 80 -36 -36 опасность
обморожения
1004.1 1001.6
06 16.02 200 м слабый снег {метель} н/о -18.5 -20.9 81 -34 -34 опасность
обморожения
1001.8 999.3 -32.3 -18.5 3 33
09 16.02 ЮВ 16 400 м 8/8 100 м
[]
-17.5 -19.7 83 -33 -33 опасность
обморожения
999.5 997.0
12 16.02 600 м слабый снег {метель} н/о -16.9 -19.0 84 -31 -31 опасность
обморожения
997.7 995.3 -20.7 -18.5 2 48
15 16.02 ЮВ 13 400 м 10/10 100 м
[]
-16.3 -18.4 84 -30 -30 997.3 994.9
18 16.02 400 м ледяные иглы {снег, метель} н/о -15.5 -17.6 84 -28 -28 998.3 995.9 -24.9 -15.5 9 56
21 16.02 ЮВ 12 1200 м 9/9 200 м
[]
-15.3 -17.6 83 -28 -28 999.1 996.7
00 17.02 4800 м ледяные иглы {снег, метель} н/о -15.4 -17.7 82 -28 -28 1001.1 998.7 -18.5 -15.2 0.2 56
03 17.02 ЮВ 9 6000 м 9/9 300 м
[]
-15.4 -17.7 82 -27 -27 1001.6 999.2
06 17.02 6000 м слабый снег н/о -15.1 -17.4 83 -27 -27 1002.6 1000.2 -18.5 -15.1 0.0 93
09 17.02 В 8 24 км 9/9 1000 м
[]
-16.1 -18.4 82 -27 -27 1004.1 1001.7
12 17.02 В 8 24 км слабый снег 5/5 1000 м
[Sc]
-19.4 -21.7 82 -32 -32 опасность
обморожения
1005.3 1002.8 -19.4 -15.1 0.2 56
15 17.02 В 9 8000 м 10/10 200 м
[]
-18.5 -20.9 81 -31 -31 опасность
обморожения
1006.5 1004.0
18 17.02 4000 м слабый снег н/о -17.8 -20.3 81 -30 -30 1006.6 1004.2 -19.8 -15.1 0.0 46
21 17.02 В 10 4000 м 9/9 200 м
[]
-16.4 -18.7 82 -29 -29 1007.0 1004.6
00 18.02 6000 м слабый снег н/о -16.6 -18.9 82 -29 -29 1007.6 1005.1 -19.8 -16.2 0.0 56
03 18.02 В 9 4800 м 5/5 100 м
[]
-17.3 -19.5 83 -29 -29 1008.7 1006.2
06 18.02 4800 м слабый снег н/о -17.6 -19.8 83 -29 -29 1009.8 1007.3 -19.8 -15.1 0.0 11
09 18.02 В 12 8000 м 9/9 200 м
[]
-19.1 -21.6 81 -34 -34 опасность
обморожения
1009.7 1007.2
12 18.02 ЮВ 9 8000 м слабый снег 10/10 300 м
[Sc]
-19.6 -22.1 80 -32 -32 опасность
обморожения
1012.0 1009.5 -19.6 -15.1 0.0 56
15 18.02 В 6 8000 м 10/10 100 м
[]
-19.0 -21.6 80 -29 -29 1013.4 1010.9
18 18.02 В 6 24 км ледяные иглы {снег} 10/10 300 м
[Sc]
-18.6 -21.2 80 -29 -29 1013.8 1011.3 -19.8 -17.5 0.0 56
21 18.02 ЮВ 6 24 км 10/10 1500 м
[]
-17.8 -20.3 81 -28 -28 1014.5 1012.0
00 19.02 ЮВ 6 30 км ледяные иглы {снег} 10/10 300 м
[Sc]
-18.8 -21.4 80 -30 -30 1015.4 1012.9 -19.8 -17.3 0.0 56
03 19.02 В 6 24 км 10/10 200 м
[]
-20.8 -23.4 80 -32 -32 опасность
обморожения
1015.9 1013.4
06 19.02 ЮВ 5 24 км ледяные иглы {снег} 10/10 300 м
[Sc]
-20.7 -23.3 80 -31 -31 опасность
обморожения
1016.5 1014.0 -21.0 -17.3 0.0 91
09 19.02 ЮВ 4 24 км 9/9 300 м
[]
-19.8 -22.4 80 -28 -28 1017.5 1015.0
12 19.02 ЮВ 3 24 км {снег} 8/0
[Ac As]
-20.7 -23.5 78 -28 -28 1017.8 1015.3 -21.1 -17.3 0.0 56
15 19.02 В 5 30 км 9/9 1000 м
[]
-22.0 -24.6 79 -33 -33 опасность
обморожения
1018.1 1015.6
18 19.02 В 3 6000 м слабый снег 10/10 600 м
[Sc]
-20.4 -23.2 78 -27 -27 1019.0 1016.5 -22.2 -19.6 0.6 47
21 19.02 В 2 24 км 8/8 600 м
[]
-18.4 -21.1 79 -24 -24 1019.6 1017.1
00 20.02 С 2 24 км ледяные иглы {снег} 4/4 600 м
[Sc]
-21.3 -23.9 79 -26 -26 1021.1 1018.6 -22.2 -18.3 0.6 57
03 20.02 С 3 24 км ясно -22.9 -25.7 78 -30 -30 1021.9 1019.4
06 20.02 С 3 24 км ледяные иглы {снег} ясно -23.0 -26.1 76 -31 -31 опасность
обморожения
1023.7 1021.2 -23.4 -18.3 0.0 57
09 20.02 С 3 24 км 8/8 600 м
[]
-22.5 -25.8 74 -31 -31 опасность
обморожения
1025.3 1022.8
12 20.02 СВ 3 24 км слабый снег 9/0
[Ac As]
-20.9 -24.1 75 -28 -28 1025.4 1022.9 -24.4 -18.3 0.4 57
15 20.02 СВ 2 30 км 6/0
[]
-22.2 -25.5 74 -29 -28 1026.3 1023.8
18 20.02 В 2 30 км 9/9 300 м
[Sc]
-21.6 -24.9 75 -27 -26 1026.4 1023.9 -24.4 -20.7
21 20.02 В 3 30 км 5/5 300 м
[]
-23.4 -26.7 74 -32 -32 опасность
обморожения
1026.9 1024.4
00 21.02 СВ 3 30 км 9/0
[Ac As Ci ing]
-24.0 -27.1 75 -33 -33 опасность
обморожения
1026.6 1024.1 -24.4 -20.7
03 21.02 СВ 5 24 км ясно -24.1 -27.5 73 -35 -35 опасность
обморожения
1026.0 1023.5
06 21.02 СВ 4 24 км 4/0
[Ac As]
-24.6 -28.1 73 -35 -35 опасность
обморожения
1025.5 1023.0 -26.0 -20.7
09 21.02 СВ 5 24 км 5/0
[]
-23.9 -28.4 66 -35 -35 опасность
обморожения
1024.7 1022.2

 

Местоположение метеостанции Baker Lake Airport (Канада): широта 64.30 долгота -96.06 высота над уровнем моря 18 м.

В архиве по умолчанию представлена погода в Baker Lake Airport за последнюю неделю. Архивные данные за месяц целиком и за предыдущие месяцы, начиная с января 2011 года, Вы можете получить, выбрав интересующий диапазон дат из раскрывающегося списка и нажав кнопку "Ввод!".

Внимание! Время в таблицах - всемирное. Для получения местного времени необходимо прибавить поправку, которая в Baker Lake Airport равна -6 ч.

Смотрите также архив погоды в соседних городах и на ближайших метеорологических станциях:

Погода в Baker Lake Climate (Канада) (4 км)
Погода в Back River MAPS (Канада) (199 км)
Погода в Rankin Inlet (Канада) (256 км)
Погода в Dubawnt Lake (Канада) (302 км)
Погода в Robertson Lake (Канада) (314 км)
Погода в Wager Bay (Канада) (357 км)
Погода в Arviat Climate (Канада) (370 км)
Погода в Arviat (Канада) (370 км)
Погода в Arviat Airport (Канада) (371 км)
Погода в Hanbury River ARS (Канада) (451 км)

Пояснения к столбцам:

Ветер - указаны скорость ветра в м/с - средняя за 10 мин, порывы в срок и между сроками (в фигурных скобках) и направление, откуда дует ветер: С - северный, СВ - северо-восточный, В - восточный, ЮВ - юго-восточный, Ю - южный, ЮЗ - юго-западный, З - западный, СЗ - северо-западный.
Видимость - горизонтальная дальность видимости в метрах или километрах. При видимости от 1 до 10 км при отсутствии осадков обычно наблюдается дымка, при ухудшении видимости до 1 км и менее - туман. В сухую погоду видимость может ухудшаться дымом, пылью или мглою.
Явления - указаны атмосферные явления, наблюдавшиеся в срок или в последний час перед сроком; фигурными скобками обозначены явления, наблюдавшиеся между сроками (за 1-3 часа до срока); квадратными скобками обозначены град или гололедные отложения с указанием их диаметра в мм.
Облачность - указаны через наклонную черту общая и нижняя облачность в баллах и высота нижней границы облаков в метрах; квадратными скобками обозначены формы облаков: Ci - перистые, Cs - перисто-слоистые, Cc - перисто-кучевые, Ac - высококучевые, As - высокослоистые, Sc - слоисто-кучевые, Ns - слоисто-дождевые, Cu - кучевые, Cb - кучево-дождевые. Подробнее классификацию облаков см. в Атласе облаков (PDF).
T - Температура воздуха - температура, измеренная на высоте 2 м над землей.
Td - Температура точки росы - температура, при понижении до которой содержащийся в воздухе водяной пар достигнет насыщения.
f - Относительная влажность воздуха - влажноcть воздуха, измеренная на высоте 2 м над землей.
Te - Эффективная температура - температура, которую ощущает одетый по сезону человек в тени. Характеристика душности погоды. При расчете учитывается влияние влажности воздуха и скорости ветра на теплоощущения человека.
Tes - Эффективная температура на солнце - температура, которую ощущает человек, с поправкой на солнечный нагрев. Характеристика знойности погоды. Зависит от высоты солнца над горизонтом, облачности и скорости ветра. Ночью, в пасмурную погоду, а также при ветре 12 м/с и более поправка равна нулю.
P - Атмосферное давление - приведенное к уровню моря атмосферное давление.
Po - Атмосферное давление - измеренное на уровне метеостанции атмосферное давление.
Tmin - Минимальная температура - минимум температуры воздуха на высоте 2 м над землей.
Tmax - Максимальная температура - максимум температуры воздуха на высоте 2 м над землей.
R - Количество осадков - Количество выпавших осадков, мм. При наведении курсора мыши на число - период времени, за который выпало указанное количество осадков.
S - Снежный покров - Высота снежного покрова, см. При наведении курсора мыши на число - состояние снежного покрова и степень покрытия местности в баллах.